Theta_e
354 354 355 356 354 353 354 356 357 357 360 358 358 357 356 355 354 354 353 353 352 350 342 344 343 342 342 344 343 344 347 349 349 351 351 351 354 357 362 361 360 360 360 359 359 358 358 358 358 358 358 357 358 357 357 357 356 356 356 356 356 357 357 357 357 357 357 357 358 358 358 358 358 358 358 358 358 357 357 357 356 356 356 355 355
354 355 354 353 353 354 356 356 356 360 360 356 357 354 358 359 355 355 353 352 348 342 347 344 342 341 341 343 341 343 345 348 348 349 351 353 354 358 363 362 361 361 360 360 359 359 359 358 358 358 357 356 358 356 357 357 358 358 358 358 358 359 359 359 359 359 359 360 359 359 359 360 360 360 359 359 358 358 357 358 357 357 357 357 356
353 354 355 354 357 356 355 357 358 357 357 355 361 361 360 359 362 359 359 357 353 350 350 349 342 341 344 342 342 342 344 348 348 350 351 351 353 357 360 364 362 362 361 361 361 361 360 359 359 359 359 358 358 359 359 359 360 360 360 360 360 361 361 361 361 361 361 361 361 361 361 361 361 361 361 361 361 360 360 359 359 359 358 358 358
353 355 354 354 354 355 355 355 356 357 361 358 358 359 359 364 363 360 362 356 353 352 353 349 340 341 343 342 341 342 343 347 351 352 351 350 351 354 357 359 364 363 362 362 362 361 361 361 360 359 360 359 360 360 360 360 361 361 361 362 362 362 362 362 363 363 363 363 363 363 363 363 363 363 362 362 362 361 361 360 360 360 359 359 359
353 354 360 353 353 354 354 359 363 361 361 361 360 355 355 356 357 359 357 354 352 351 353 351 344 341 344 342 343 343 345 345 349 351 348 349 350 352 355 358 359 363 364 363 364 363 362 361 360 361 361 361 360 361 361 362 362 362 362 363 363 363 363 364 364 364 364 364 364 364 364 364 364 364 364 363 363 362 362 361 361 360 360 361 360
357 359 356 354 353 354 358 357 363 365 365 362 356 354 353 356 355 357 361 358 354 353 352 350 346 347 347 342 342 343 345 343 345 348 349 349 350 351 353 355 357 359 361 364 364 364 363 363 363 362 362 362 362 362 362 362 362 363 364 364 364 364 365 366 365 365 366 366 366 366 366 366 365 365 364 364 364 363 363 363 363 362 362 362 361
366 361 359 354 353 357 359 361 363 365 363 363 361 361 356 355 360 358 357 359 357 356 355 352 350 344 351 344 338 342 344 341 342 345 350 351 351 350 352 353 353 355 359 358 366 365 365 364 364 364 364 363 363 364 364 364 364 364 365 366 366 366 367 368 367 367 368 368 367 367 367 367 366 366 365 365 365 365 365 365 365 364 364 364 363
366 366 363 358 356 354 355 363 365 364 363 363 361 357 355 361 362 359 357 358 361 356 353 350 349 347 345 342 347 345 339 340 342 342 345 348 351 352 353 353 353 352 360 354 355 361 366 366 366 366 365 365 365 365 364 364 365 365 366 367 367 369 369 370 370 370 370 369 368 368 368 368 367 366 366 366 366 366 366 366 365 365 364 364 363
366 370 366 362 360 356 359 363 366 362 363 363 358 359 354 358 362 361 358 354 358 357 352 350 346 346 341 341 347 349 342 344 340 341 345 343 346 351 353 354 357 363 358 353 352 352 361 367 367 367 366 366 366 366 367 367 367 367 367 368 369 369 369 370 370 370 370 369 369 369 369 369 369 369 368 366 367 367 366 366 365 365 364 363 363
367 368 366 367 359 357 358 362 367 363 363 360 355 356 357 357 357 362 360 356 355 355 353 351 346 344 341 342 341 340 340 339 342 354 342 342 344 345 348 349 357 359 358 353 353 352 352 362 368 368 368 368 367 367 367 368 368 369 369 369 369 370 370 370 370 370 369 369 369 369 369 370 370 370 370 369 369 369 368 367 366 365 363 363 363
368 368 362 363 362 360 361 364 366 364 361 360 355 356 356 354 356 359 364 361 359 360 360 354 350 345 339 345 346 347 344 347 347 341 342 342 343 345 348 346 348 351 356 355 356 355 352 350 352 356 360 367 370 369 368 369 370 370 369 370 371 370 371 370 369 370 370 370 370 370 370 370 370 371 370 370 370 369 368 368 367 366 365 364 362
365 367 364 361 362 363 362 364 365 363 360 355 354 352 351 353 358 361 356 357 360 358 356 354 350 346 344 339 339 341 342 344 348 345 348 340 344 346 344 344 345 345 349 354 358 357 352 352 356 352 354 359 367 371 369 370 370 370 371 372 370 372 370 371 371 371 371 371 371 371 370 370 371 371 371 370 369 368 368 368 367 366 366 365 363
368 368 365 368 368 362 361 364 363 366 364 357 357 357 354 355 366 362 358 355 355 357 351 350 345 341 342 342 342 342 345 346 344 339 339 338 341 346 342 344 342 345 346 346 352 356 355 355 353 353 354 356 361 372 367 368 368 369 370 371 373 372 372 372 372 372 372 371 371 371 370 370 370 370 370 370 368 369 369 368 367 366 366 365 363
367 366 367 368 367 363 361 363 364 363 365 368 357 364 363 364 363 359 360 355 352 357 354 351 345 336 333 335 339 344 353 355 344 337 337 338 341 344 339 337 339 342 345 347 349 349 356 359 358 359 359 361 362 360 361 363 367 369 369 371 374 375 373 372 371 372 372 372 372 371 370 370 370 371 371 370 370 370 369 368 367 366 366 365 364
368 369 366 367 367 367 364 364 364 368 362 362 362 364 360 362 363 360 358 359 358 360 356 353 342 351 348 341 335 336 340 343 351 343 337 335 338 339 340 337 338 340 344 346 347 348 349 352 355 354 359 362 361 359 357 359 359 367 366 367 368 372 373 373 373 372 372 371 372 371 371 371 371 371 371 370 370 369 369 369 368 367 366 365 364
367 368 365 366 366 364 366 362 362 369 365 359 360 363 362 365 363 363 360 354 352 353 359 356 355 351 335 338 335 337 331 333 343 344 342 335 335 335 340 338 338 341 344 342 342 345 346 347 348 351 361 364 362 362 362 360 365 372 372 370 367 366 368 372 373 371 371 372 371 371 371 371 371 370 370 370 370 370 368 368 368 367 366 365 365
363 364 367 364 364 365 365 369 366 366 368 365 362 362 361 360 362 364 360 355 351 354 358 358 357 357 343 338 333 332 334 339 340 339 346 339 336 334 342 338 339 340 340 340 341 344 344 346 350 356 360 358 359 361 362 362 362 370 371 373 374 370 368 373 373 370 371 371 371 370 370 370 370 370 370 371 370 370 369 368 367 367 366 366 365
362 362 366 366 363 364 367 367 366 363 365 362 362 358 359 361 361 357 359 361 356 355 354 358 357 356 360 345 337 332 336 344 338 330 350 346 343 339 336 337 340 342 341 342 341 342 347 343 349 351 356 359 362 362 361 359 365 366 366 367 375 373 370 368 371 372 371 371 370 369 370 370 370 370 371 371 372 370 369 367 366 366 366 365 365
362 364 366 366 365 366 364 365 366 364 370 364 363 359 358 360 364 361 360 366 359 353 352 354 355 355 351 351 356 359 350 345 337 343 334 341 347 344 339 340 337 339 339 342 337 335 342 344 346 353 352 355 358 360 355 354 361 369 370 371 370 372 370 368 369 368 369 369 370 370 370 371 371 370 369 369 369 368 367 367 366 365 365 365 365
361 364 363 365 367 365 366 364 367 363 368 367 361 357 362 361 364 364 366 367 363 354 355 357 349 350 356 353 355 355 348 350 345 343 341 336 337 341 346 341 341 342 342 340 339 338 341 343 346 349 351 353 355 354 356 359 356 356 366 372 374 375 372 368 366 366 368 370 370 370 371 370 370 368 367 368 368 368 366 366 366 366 366 367 366
364 364 364 364 369 364 365 364 364 364 370 366 362 361 363 364 364 361 361 363 362 360 359 358 354 350 356 354 360 352 352 349 345 344 340 337 338 335 335 342 344 342 342 343 341 341 345 344 344 348 350 353 353 354 355 362 369 368 375 367 370 369 368 366 364 366 369 372 371 371 370 369 369 369 369 368 367 367 366 366 367 368 368 368 367
363 364 364 363 365 366 365 364 363 364 367 358 362 362 362 361 361 362 361 364 363 364 361 359 358 352 351 353 351 348 348 349 347 344 346 346 336 337 337 338 332 336 343 342 344 345 344 343 345 343 348 350 351 350 351 358 364 363 361 366 368 369 368 367 366 368 370 372 371 370 369 369 369 369 369 369 369 367 366 366 366 366 367 367 366
361 362 363 364 363 367 363 363 362 369 367 361 365 363 361 362 362 363 364 359 356 360 363 363 361 357 352 349 347 344 343 344 343 345 344 343 338 340 341 346 341 336 339 344 348 346 346 343 340 337 358 356 355 354 360 359 365 358 361 363 364 367 367 367 367 368 367 366 367 369 371 371 369 369 369 369 368 368 368 365 365 365 366 366 366
358 359 361 361 363 362 366 365 365 361 365 363 363 363 361 363 366 367 363 362 361 365 358 358 359 359 353 351 348 350 348 345 349 350 342 340 342 340 338 341 341 342 342 344 346 346 344 343 343 343 350 353 357 367 366 362 360 364 361 361 360 363 364 367 369 368 366 364 362 363 365 366 367 368 369 367 366 367 367 368 366 365 366 367 365
357 358 359 358 363 360 361 358 363 366 367 363 364 365 362 364 366 360 361 362 365 365 360 356 357 356 357 355 354 351 350 350 348 349 345 345 346 337 343 344 337 339 343 348 348 349 345 345 345 351 356 362 363 359 355 358 356 359 363 360 359 361 363 365 368 367 365 363 363 363 363 362 362 363 362 362 362 364 366 365 365 366 365 366 367
356 355 357 356 363 362 366 364 368 370 367 368 368 365 364 365 365 361 361 362 364 362 362 362 360 359 358 352 351 352 350 349 350 349 347 347 347 345 344 348 347 345 346 350 355 344 347 350 349 352 356 357 357 358 361 356 353 359 363 360 354 354 359 360 366 368 366 363 362 361 361 361 362 364 363 362 362 362 363 365 365 365 364 365 364
357 358 361 360 359 361 364 364 366 368 368 367 370 366 368 367 365 364 364 366 365 364 362 358 359 357 360 355 355 352 348 346 347 347 348 349 349 350 349 343 344 345 344 348 349 350 345 349 352 350 358 370 371 363 356 353 357 359 363 360 355 353 356 360 363 365 366 365 364 363 362 361 363 366 368 366 362 364 366 363 363 362 362 363 361
363 360 359 360 358 360 365 365 366 367 366 365 364 364 367 365 364 365 362 366 364 362 361 362 357 357 356 360 360 354 351 347 349 349 350 355 351 354 353 348 339 334 342 342 346 347 355 346 350 355 355 357 360 361 362 358 353 359 365 360 355 354 357 359 359 359 359 359 359 360 359 359 359 361 362 363 362 361 362 364 365 364 361 360 359
361 363 358 359 358 360 362 363 365 365 364 363 365 364 364 366 363 363 359 360 360 361 364 364 362 359 358 358 356 356 354 352 350 351 354 356 360 358 354 349 346 341 337 337 338 345 348 346 344 349 360 358 355 355 357 357 358 358 353 353 354 354 354 353 355 353 353 352 353 353 354 355 356 357 359 360 360 360 361 362 365 364 361 357 358
362 361 358 358 361 368 360 361 364 365 363 363 364 362 363 363 363 364 364 364 363 365 366 365 361 358 359 356 354 356 359 353 354 354 360 363 357 356 355 356 352 347 342 337 337 345 345 348 350 345 352 353 356 358 358 355 357 357 354 352 352 354 354 353 352 350 350 349 348 347 349 352 354 356 357 358 358 357 358 358 361 363 365 360 359
358 361 357 358 361 361 359 362 363 364 362 361 363 363 365 362 360 362 364 365 363 362 363 365 363 358 356 355 354 355 355 356 355 355 364 359 359 356 355 352 351 352 347 345 337 344 354 347 349 351 351 350 356 354 351 353 355 351 349 352 354 355 352 350 349 347 346 345 344 344 344 346 349 351 351 351 352 352 354 356 358 361 362 361 359
357 358 358 357 360 359 360 361 361 362 362 361 362 364 364 361 361 361 362 362 361 360 361 363 362 362 357 357 357 357 360 363 360 355 359 360 357 353 351 350 348 346 350 348 346 347 353 354 352 352 354 352 353 350 349 353 354 354 350 350 352 353 350 349 350 347 346 343 342 341 341 342 343 344 347 349 351 353 355 356 355 355 356 356 356
356 356 356 357 357 358 357 358 359 358 359 358 361 363 362 360 362 360 361 360 361 361 362 361 362 358 360 359 359 361 363 362 362 358 354 357 354 351 351 350 349 351 349 347 346 345 350 356 355 354 355 354 352 352 351 351 351 352 353 351 352 350 349 348 348 346 344 344 343 342 340 339 340 340 343 346 349 351 353 355 353 352 352 351 350
356 355 358 358 358 357 356 356 355 358 359 359 361 361 362 361 364 364 362 360 359 360 359 359 360 362 357 356 357 360 361 358 357 358 354 352 352 349 349 348 347 350 349 345 344 345 344 350 351 355 353 357 351 352 350 351 352 354 352 352 354 350 349 347 346 347 346 345 343 340 339 339 338 339 341 343 346 348 349 348 347 345 344 343 340
355 356 357 356 358 357 356 355 355 359 359 360 360 360 361 362 362 362 362 360 360 362 362 361 361 360 359 357 358 358 359 355 355 354 354 352 350 350 348 348 346 347 348 348 347 347 347 345 351 350 350 352 351 351 353 354 355 354 352 351 349 352 353 350 349 350 347 345 344 342 340 338 338 338 338 338 340 341 342 341 338 336 335 334 333
354 356 356 356 358 356 356 358 358 359 360 361 360 359 361 362 361 360 359 360 362 362 362 360 359 357 356 355 354 355 355 353 354 353 352 349 345 348 347 347 347 347 349 349 352 348 345 345 347 350 351 349 350 353 355 356 354 352 350 351 353 352 351 352 353 354 350 347 347 345 344 343 341 339 337 337 336 334 332 332 331 331 331 331 331
352 353 356 356 357 357 355 359 358 358 357 359 360 359 361 362 361 361 361 358 359 359 358 358 365 357 356 355 355 354 353 351 349 349 349 348 348 347 347 350 352 353 356 354 354 354 347 344 344 349 351 351 353 354 354 353 347 347 349 350 352 353 353 355 357 358 351 349 350 347 345 345 345 341 339 338 339 338 335 332 331 330 330 329 329
352 352 353 355 358 359 356 357 358 359 359 360 361 360 357 358 360 361 362 360 358 358 358 359 360 359 356 355 355 354 351 349 350 351 350 349 351 344 342 343 346 353 349 347 347 346 348 346 344 347 347 351 346 347 347 350 350 350 350 351 352 353 353 353 356 359 361 361 360 360 351 349 346 342 344 343 340 337 335 334 333 333 332 330 327
351 350 352 354 358 357 358 358 357 359 360 361 360 360 359 358 358 358 357 357 357 357 358 358 358 357 356 355 354 354 353 351 350 349 349 350 351 349 349 349 353 351 350 348 352 350 347 344 344 344 344 346 347 344 346 353 352 352 349 349 350 353 355 355 355 359 361 360 357 352 352 350 348 350 342 338 339 339 339 338 337 336 336 334 328
351 351 352 352 354 357 358 358 358 359 360 359 359 361 361 359 358 359 356 356 356 357 356 356 356 353 352 353 353 353 354 353 351 350 350 349 349 350 353 353 351 350 349 350 349 347 346 347 345 346 345 344 345 350 353 350 349 348 352 352 350 351 353 355 356 356 358 358 357 357 354 353 353 351 344 344 345 344 342 341 344 344 342 338 333
351 354 352 351 352 353 360 359 359 358 359 360 359 360 360 359 357 356 356 358 357 354 355 357 355 355 355 353 351 349 353 367 362 361 358 361 353 349 349 350 351 348 350 351 349 348 348 348 348 347 345 343 343 344 345 346 346 347 352 354 352 353 354 353 354 357 358 355 355 356 356 357 357 357 357 358 359 357 356 348 348 349 347 341 337
350 352 351 351 348 346 345 348 350 354 356 355 362 365 365 359 356 356 355 356 354 355 356 354 354 354 353 351 352 360 362 356 356 359 367 367 364 354 348 351 351 351 351 348 347 347 348 345 345 345 344 343 343 346 348 349 350 353 353 352 350 352 351 350 351 353 356 355 353 352 355 358 357 356 357 358 360 361 360 358 356 350 343 338 338
351 351 347 347 350 350 349 347 347 348 348 351 342 333 338 350 360 355 355 359 356 353 353 353 353 354 354 352 351 357 367 369 361 372 366 365 365 366 365 367 364 352 348 345 343 344 343 344 345 345 343 343 345 349 351 353 355 354 352 352 351 350 347 345 343 349 356 355 353 352 353 357 357 355 357 358 360 360 359 358 343 343 340 338 336
350 349 347 348 349 352 353 350 350 351 350 346 329 333 337 338 350 356 355 355 356 355 355 353 353 353 351 349 348 348 350 359 361 361 366 370 364 366 366 365 365 365 361 350 346 344 344 343 342 343 345 345 345 348 352 355 354 353 353 352 350 348 347 345 345 344 352 357 353 351 351 355 357 356 355 357 358 358 358 346 342 343 340 338 336
353 350 348 349 348 350 352 348 349 352 348 337 327 331 333 335 338 354 352 353 351 350 350 351 350 350 349 351 354 357 357 363 356 357 361 363 370 363 365 367 366 362 348 347 351 353 348 347 346 345 345 344 345 349 355 357 355 353 351 348 348 348 347 346 346 348 352 357 354 349 347 351 355 352 351 354 356 357 358 348 344 342 339 336 335
353 351 352 349 350 352 355 351 349 347 342 331 327 328 329 331 335 344 349 351 349 347 348 350 354 357 356 356 355 352 345 341 340 344 351 356 362 362 360 358 360 367 365 348 345 347 352 351 347 346 349 352 352 353 359 358 354 350 349 347 347 346 346 346 350 351 355 359 349 347 345 348 352 352 350 353 356 356 357 347 338 339 337 338 338
348 348 351 350 351 353 354 355 348 340 333 323 323 326 326 328 331 351 352 360 355 352 352 353 357 359 360 361 353 344 338 336 337 343 346 350 355 360 360 359 359 358 359 361 361 358 354 353 351 352 354 357 359 358 354 353 353 352 352 350 350 350 351 352 352 354 355 357 352 348 344 349 353 350 350 353 355 355 355 344 340 338 339 338 338
349 350 349 350 350 351 353 353 347 339 331 319 320 321 323 326 337 356 355 354 355 354 354 355 356 358 359 357 345 338 336 334 335 333 343 353 354 355 354 354 355 358 358 368 352 353 359 355 356 356 356 355 348 351 351 351 350 349 350 351 350 347 346 345 346 351 350 354 355 350 347 347 351 349 350 353 354 352 353 353 344 343 340 339 338
347 346 346 346 348 349 350 351 345 334 327 319 315 316 318 322 342 353 356 358 354 353 354 355 356 355 354 348 343 338 336 335 332 323 331 353 347 347 347 348 350 352 354 355 344 339 338 337 334 334 330 328 328 327 327 327 334 340 343 341 341 345 345 343 345 346 347 351 352 354 350 346 350 349 350 352 352 350 350 352 355 346 340 337 337
346 348 348 346 348 350 349 348 338 330 325 321 314 313 315 319 337 350 352 355 356 354 352 353 353 352 356 357 347 338 335 333 324 322 327 344 341 342 343 341 344 345 346 340 344 343 339 339 338 335 334 332 331 329 330 329 328 334 342 339 343 345 346 346 342 345 347 348 351 357 348 346 350 349 349 351 350 348 351 351 354 352 343 342 339
345 346 347 344 344 346 345 341 339 330 327 324 314 313 314 316 334 347 355 355 353 353 353 351 351 347 347 351 350 342 337 332 318 319 323 337 338 339 339 338 340 341 341 336 338 340 344 346 346 347 347 347 350 348 349 343 339 348 346 346 348 349 345 343 345 344 341 342 350 355 347 346 346 347 347 347 345 349 350 351 353 354 356 356 356
Wind_Speed
4 4 4 4 3 4 4 4 3 2 3 3 2 3 3 3 3 5 5 6 6 8 4 4 4 3 4 3 6 7 7 6 6 6 5 5 5 8 13 13 11 10 10 9 8 7 6 6 5 5 5 6 6 6 6 6 6 6 6 7 7 7 8 8 8 9 10 10 10 11 11 12 11 11 11 12 12 12 12 12 12 12 12 12 12
5 5 5 4 3 4 4 3 2 1 1 2 2 4 3 4 4 4 3 4 6 6 2 3 4 4 4 3 5 6 7 7 6 6 5 6 6 6 13 12 12 11 11 10 9 8 8 7 7 7 6 5 6 6 6 6 7 7 8 8 9 9 9 10 10 10 10 11 11 12 12 12 12 12 12 12 12 12 13 13 13 13 12 12 12
5 5 4 4 2 3 2 1 2 2 2 3 2 2 3 1 2 3 4 2 4 4 2 1 5 5 5 4 5 6 7 7 6 6 6 5 5 5 8 14 12 12 11 11 11 10 9 8 7 6 6 6 6 6 7 7 8 8 9 9 9 10 10 10 10 11 12 12 12 12 12 13 13 13 13 13 13 13 13 13 13 13 13 13 13
5 4 4 4 3 3 3 2 2 3 2 2 1 1 2 1 2 3 3 3 2 4 5 4 4 4 4 4 5 5 4 7 7 7 6 5 5 5 5 6 12 12 11 11 11 11 10 10 9 8 8 7 7 7 8 8 8 8 8 8 9 9 10 10 11 11 12 12 12 12 13 13 13 13 14 13 14 14 13 13 14 14 14 14 14
6 6 5 5 4 3 3 2 2 2 3 2 2 1 2 3 3 3 3 4 5 5 4 2 3 5 3 6 5 5 5 8 7 6 6 6 6 5 5 5 4 10 12 11 12 11 11 11 11 11 10 9 9 9 8 8 8 8 8 9 10 10 11 11 11 12 12 12 12 12 12 13 13 13 13 14 14 14 14 14 14 13 13 13 13
4 3 4 5 5 4 3 3 3 3 3 2 2 2 2 1 1 2 3 4 4 5 5 6 7 2 2 5 6 4 3 6 8 7 7 6 6 5 5 5 5 5 5 11 12 11 12 12 12 11 11 10 10 9 9 8 9 9 9 10 10 11 11 12 11 11 12 11 12 12 13 13 14 14 14 13 13 14 14 14 14 14 13 13 13
3 3 4 4 5 4 3 2 2 2 3 2 2 1 1 2 1 2 3 4 4 4 3 4 6 5 1 4 6 4 6 6 7 8 7 6 6 6 5 5 5 5 5 5 8 12 12 12 12 12 12 11 10 10 10 9 10 9 10 10 10 11 11 12 11 11 10 10 12 12 13 13 14 13 13 13 12 11 12 12 12 12 12 12 13
3 3 3 3 5 4 4 3 3 3 3 2 3 4 4 2 1 0 3 4 4 4 5 3 4 7 0 4 4 5 8 6 6 6 6 7 6 6 6 6 5 5 6 5 5 6 12 12 12 12 11 11 10 10 11 11 10 10 10 10 11 11 11 11 10 9 9 11 12 12 13 13 13 13 12 12 12 11 11 10 10 10 11 12 13
3 2 1 0 3 3 2 3 3 3 2 3 4 2 2 3 2 2 2 1 3 4 5 4 4 4 3 1 4 3 4 4 4 5 6 7 7 7 7 6 6 8 6 5 5 5 9 12 11 12 11 10 9 10 10 11 11 11 11 11 11 11 11 11 9 9 9 10 10 11 11 12 12 13 13 12 12 11 10 10 10 10 11 11 11
3 2 1 1 3 4 3 4 3 2 4 4 3 3 3 3 3 1 2 1 3 4 5 6 4 4 3 2 4 6 6 6 6 5 6 5 5 5 7 7 7 7 6 6 6 5 5 8 11 11 11 10 10 10 10 11 11 11 12 12 12 11 11 10 9 9 9 9 10 10 11 11 12 11 11 12 12 11 11 10 10 11 11 10 9
3 3 3 2 3 4 3 3 3 4 4 4 2 2 2 2 2 3 1 0 2 3 5 4 6 5 2 4 4 3 3 3 3 3 5 6 6 6 5 5 5 6 7 6 6 5 5 5 5 5 6 10 10 10 10 11 11 12 12 12 11 11 11 10 9 9 10 9 10 10 11 11 11 11 11 11 11 10 10 10 10 10 10 9 9
4 3 3 3 3 3 3 4 3 3 4 4 1 0 0 2 3 1 3 3 1 3 3 3 4 6 3 4 4 3 2 3 1 3 3 4 6 5 5 4 4 5 7 6 6 5 6 5 5 6 5 7 11 10 11 11 11 11 11 10 11 11 10 10 10 10 10 10 11 10 10 10 11 11 11 10 11 10 10 10 10 10 10 10 9
3 3 2 3 3 4 3 3 1 2 3 3 4 3 2 3 1 1 0 2 3 1 3 3 3 0 4 3 1 0 1 2 3 4 5 5 3 4 4 5 5 3 3 5 6 5 6 5 5 5 5 5 6 10 13 12 12 11 11 11 10 11 11 10 10 10 10 11 11 10 10 10 10 10 10 11 11 11 10 10 10 11 11 10 9
3 3 2 3 3 3 3 2 1 2 2 2 2 1 2 3 2 1 0 0 1 2 6 1 3 2 3 1 4 2 1 1 2 3 3 4 6 4 5 5 6 5 4 4 4 5 6 5 5 6 5 5 5 5 6 7 8 12 12 11 11 11 11 11 10 10 10 11 10 10 10 9 9 9 10 11 11 11 11 10 10 10 10 10 10
3 3 2 2 2 3 3 2 2 1 2 1 1 1 2 1 1 1 3 1 2 3 4 1 2 1 2 4 2 2 3 4 1 2 5 4 4 5 5 5 5 5 5 4 4 3 5 5 5 5 5 5 5 5 5 6 7 10 12 12 13 12 12 12 11 10 10 10 10 10 10 9 9 9 9 10 11 11 11 10 10 11 11 10 9
3 3 2 3 2 2 1 2 1 1 3 1 1 2 0 0 0 1 1 2 3 2 3 4 1 3 2 1 2 1 0 1 1 4 2 4 3 4 6 6 5 4 3 5 5 4 5 6 5 4 5 5 5 5 6 5 8 10 12 12 13 12 11 11 11 10 9 9 9 9 9 9 9 9 9 10 11 12 11 11 10 11 11 11 10
4 4 4 4 3 2 1 1 2 2 2 2 1 1 1 2 1 1 0 1 3 2 3 4 4 1 6 2 1 1 1 3 1 4 3 1 2 6 7 7 7 6 6 6 4 5 5 5 5 4 4 5 5 5 6 5 6 5 7 11 12 11 11 9 10 10 9 9 8 8 9 9 9 9 9 10 11 11 11 11 11 11 12 11 11
4 4 4 4 3 2 2 1 2 2 2 1 1 1 1 1 1 2 2 1 2 3 2 3 2 3 2 1 3 1 1 2 1 1 3 2 2 3 3 3 6 8 6 6 6 5 6 5 4 5 4 4 4 5 6 6 5 4 5 6 10 11 10 10 10 9 9 9 8 8 9 9 9 9 9 10 11 11 11 11 11 11 11 12 11
4 4 4 4 4 3 3 2 1 0 1 2 1 1 3 2 1 2 2 1 2 2 2 2 3 2 4 3 1 2 4 1 1 0 2 5 4 2 3 5 2 3 5 5 5 5 5 5 5 6 5 5 5 5 6 6 6 6 8 9 10 10 9 10 10 9 9 9 8 8 8 9 9 9 9 10 11 11 11 11 11 11 11 11 12
4 4 5 3 3 3 3 3 2 1 1 3 3 2 0 0 3 2 1 0 2 3 1 2 2 2 2 3 4 3 1 1 0 0 1 0 4 6 1 4 4 1 3 3 5 4 4 5 5 4 5 5 5 5 5 4 5 4 5 9 8 8 9 9 9 9 8 8 8 7 8 8 8 8 8 9 10 11 11 11 11 11 11 11 11
4 5 4 4 3 3 4 3 2 3 0 1 2 1 1 2 2 2 0 0 0 1 1 0 1 1 3 3 3 3 3 1 5 3 1 0 2 1 3 4 2 3 5 5 4 4 2 5 4 5 6 6 5 5 5 3 4 4 4 7 8 8 9 9 9 9 9 8 8 7 8 8 8 8 9 9 10 11 11 11 11 11 11 11 11
4 4 3 4 4 3 4 4 3 2 1 3 1 1 3 3 3 2 1 1 2 0 0 0 1 2 3 1 2 2 4 4 4 4 2 2 0 2 2 2 3 5 5 5 4 5 4 3 4 2 5 4 4 5 2 3 3 3 4 7 8 9 10 10 9 9 9 9 8 8 9 8 8 8 8 9 9 10 11 11 11 11 11 11 11
5 4 4 4 4 3 4 5 4 2 3 2 1 2 2 3 2 2 2 2 0 1 2 0 1 2 3 4 4 4 3 2 0 1 0 1 2 0 2 3 2 6 5 4 6 6 6 5 3 3 1 1 4 2 2 4 3 4 4 8 10 10 10 10 9 10 10 10 10 9 9 9 9 8 8 8 9 11 10 12 11 11 11 11 11
5 5 5 5 4 4 3 3 3 3 3 2 3 2 1 2 2 1 2 2 1 1 1 1 1 1 2 3 4 4 2 4 4 1 1 1 1 1 1 3 3 3 6 6 5 4 4 4 4 4 3 3 1 1 2 2 3 7 5 8 10 10 11 11 10 11 10 11 12 11 10 10 10 8 8 8 10 10 11 11 11 11 12 12 11
5 6 5 5 5 5 3 4 3 2 4 4 3 3 3 2 2 2 2 1 1 2 1 2 2 2 3 3 2 3 4 3 3 3 3 2 1 1 1 1 2 3 4 1 2 3 3 2 3 5 1 1 0 3 4 3 3 7 9 6 10 10 11 10 10 12 11 13 13 12 11 11 11 11 10 11 11 11 11 12 12 12 12 12 11
5 6 6 5 5 5 3 4 4 3 4 3 4 4 3 3 2 3 2 2 2 2 2 1 3 3 4 3 3 4 2 2 3 3 4 2 1 3 1 1 2 3 3 2 2 2 3 3 3 2 1 1 3 4 3 3 4 7 9 7 7 8 8 11 11 11 12 14 15 13 13 12 11 11 11 12 12 12 13 10 12 13 13 13 12
6 5 5 5 6 4 4 4 3 3 3 3 3 4 3 3 3 2 2 1 2 2 3 2 1 1 2 4 4 3 4 4 4 5 3 2 3 3 2 2 4 2 1 1 2 1 4 3 4 3 1 2 2 3 3 4 5 7 10 5 5 8 10 10 10 11 13 15 15 14 14 14 12 11 11 12 13 11 11 13 14 15 13 11 11
4 5 4 5 5 5 5 5 4 4 3 4 4 4 3 3 3 2 2 1 2 0 1 2 2 2 2 1 0 3 4 5 3 3 4 2 1 0 2 2 1 3 3 3 3 2 2 1 3 3 4 3 4 3 5 6 5 7 8 4 5 6 10 10 10 11 13 15 15 15 15 15 14 14 15 14 14 13 13 11 12 15 16 14 12
5 5 6 5 5 5 5 6 5 4 3 4 3 4 3 3 3 3 3 1 1 2 2 2 2 2 2 2 3 2 3 3 3 3 2 2 0 1 3 3 4 1 1 2 3 1 3 2 1 3 4 5 6 5 5 6 7 7 6 5 5 4 6 8 10 12 13 14 15 14 15 16 16 15 16 16 15 13 14 13 12 13 16 17 13
5 4 6 6 5 6 6 5 6 5 5 4 4 4 3 3 3 4 3 3 1 1 2 3 3 2 2 3 3 3 4 4 4 4 2 2 3 4 2 2 3 3 2 1 3 2 3 4 1 2 4 6 5 6 4 6 9 9 4 4 4 4 6 9 11 12 13 14 15 16 15 15 15 15 16 17 15 14 14 14 12 12 12 16 15
5 4 7 7 6 6 6 5 6 6 5 6 5 4 4 3 3 4 3 3 3 3 3 3 3 3 2 3 3 3 3 5 4 3 4 2 3 3 2 1 2 3 1 0 2 4 1 3 3 3 4 4 4 4 5 5 5 4 4 4 4 8 10 8 12 13 13 14 15 15 14 13 13 14 14 14 14 14 14 13 12 11 12 15 16
6 5 5 6 5 7 6 5 7 6 5 6 6 5 5 5 3 4 3 4 3 3 3 3 3 2 3 3 3 4 4 1 3 3 5 4 5 5 5 5 4 4 4 3 3 8 4 3 4 4 4 4 7 6 6 5 6 7 5 6 7 9 7 6 9 12 12 13 13 14 14 13 13 13 12 13 13 14 14 13 14 15 16 16 16
6 6 6 5 6 7 6 5 5 6 5 5 6 5 5 5 4 4 3 4 3 3 3 4 2 2 3 3 3 4 2 3 3 3 3 3 3 3 2 2 3 4 5 5 5 6 4 3 3 2 4 4 4 3 6 6 7 7 8 6 5 4 5 5 5 8 12 14 16 15 14 13 12 12 12 12 13 14 15 15 15 16 16 16 16
7 7 6 6 5 7 7 7 6 8 7 6 6 5 6 6 5 5 3 3 3 4 3 4 4 3 3 3 4 4 3 3 4 3 4 4 5 4 4 4 5 5 4 4 6 2 5 4 3 4 3 2 4 5 5 6 7 6 7 7 6 4 5 6 6 7 12 14 15 14 12 13 12 11 12 13 13 14 15 15 16 16 16 15 15
6 7 7 6 6 7 6 5 7 7 8 8 6 6 6 6 6 5 5 5 4 4 4 5 5 4 3 3 4 4 3 4 5 4 3 2 3 6 7 6 7 6 5 6 3 4 5 5 3 3 3 3 3 6 7 6 5 6 6 6 6 5 5 6 7 7 11 13 15 16 15 14 13 12 13 14 13 13 14 16 15 15 15 15 15
7 7 8 7 6 7 8 6 6 6 7 7 6 6 8 7 6 6 5 6 6 6 6 5 6 5 5 4 5 5 4 4 4 5 4 4 6 7 7 6 5 6 5 3 5 5 4 3 3 3 3 4 5 6 6 6 6 6 3 4 4 5 6 6 6 6 8 13 14 15 15 15 14 14 14 14 13 13 14 14 14 14 15 14 14
7 6 7 7 5 7 8 6 6 6 7 6 6 5 5 7 7 6 5 5 6 6 6 6 5 5 5 5 5 5 4 4 5 4 4 5 5 4 4 3 5 5 4 6 7 6 4 4 4 3 3 3 3 5 5 3 5 4 4 4 4 5 6 5 5 7 10 13 12 13 14 15 15 14 12 13 15 16 14 12 13 14 15 15 15
8 8 7 7 6 7 7 6 6 7 7 7 6 6 5 5 6 6 6 6 6 6 6 6 6 5 5 5 5 5 4 4 5 5 4 5 4 4 3 3 3 2 3 3 2 2 2 3 3 4 2 3 3 4 3 2 3 4 5 5 4 4 5 7 6 6 7 7 7 8 9 10 10 13 15 16 16 15 14 13 13 15 16 16 15
7 8 8 7 7 7 6 6 6 7 7 7 7 7 6 4 5 6 6 6 6 6 6 7 7 6 7 7 6 6 6 5 4 5 5 4 4 3 3 2 0 1 1 1 1 1 1 2 3 3 4 4 3 4 5 1 2 2 3 6 6 4 3 5 8 8 7 8 7 10 10 10 11 11 13 15 15 16 16 15 15 15 16 16 14
7 6 8 8 6 6 7 7 6 6 7 7 6 6 6 6 4 4 5 5 4 4 3 4 4 4 5 5 6 6 7 7 9 7 3 4 3 3 3 3 2 1 1 1 2 3 3 3 3 5 3 3 5 3 2 3 4 4 3 3 7 8 8 5 5 8 9 7 7 7 8 9 9 11 12 12 14 15 15 13 13 14 14 13 12
3 2 3 5 4 4 3 5 7 6 6 7 6 5 6 6 6 5 5 4 3 3 3 3 3 3 3 4 5 5 3 4 2 2 12 10 4 5 4 3 3 3 2 1 2 2 2 3 5 3 3 4 5 3 5 4 3 3 3 3 4 5 6 7 6 7 6 7 6 7 8 7 8 8 8 8 9 11 10 12 10 11 12 13 11
4 2 4 8 9 10 10 11 13 8 3 3 4 11 10 7 6 5 4 6 7 4 4 3 3 4 3 4 4 5 6 5 12 15 15 11 10 8 6 5 3 3 3 3 3 3 3 5 5 4 5 5 4 3 4 3 2 2 5 4 5 6 6 7 4 4 6 5 7 9 9 7 7 8 7 7 8 7 7 7 6 8 11 14 13
7 7 7 7 6 6 5 5 2 4 7 9 10 9 6 5 6 7 6 5 4 5 4 4 4 5 4 4 4 6 8 4 2 7 13 11 9 8 6 6 6 4 3 3 4 3 3 4 4 3 4 4 4 4 4 5 3 3 3 4 5 5 5 8 11 9 4 4 7 7 9 8 6 7 7 7 7 7 7 6 10 14 15 14 14
3 3 7 8 6 6 5 4 1 3 4 3 8 8 6 3 5 4 7 5 5 5 5 6 6 5 5 5 4 5 2 3 3 3 3 5 7 7 4 3 4 4 5 5 4 3 2 3 4 4 3 5 5 4 5 3 5 4 3 4 3 4 6 5 6 7 8 7 7 7 8 7 6 6 6 6 6 6 8 11 15 17 16 14 12
4 3 2 4 6 5 5 6 4 2 0 5 8 6 4 5 3 3 4 5 6 6 5 5 5 4 3 3 2 5 5 10 6 4 3 4 1 5 5 5 6 7 7 7 7 6 3 3 4 5 5 3 4 4 3 3 3 5 4 5 4 4 4 6 6 7 10 7 5 5 7 7 5 6 6 6 6 6 8 11 16 16 14 12 12
4 5 5 5 3 3 3 4 3 2 2 7 8 6 5 5 3 3 4 4 4 5 3 1 4 4 3 3 5 4 4 6 5 5 4 3 3 1 2 2 2 4 7 7 7 9 7 5 4 5 4 2 4 4 4 3 4 6 7 7 5 5 5 6 7 8 10 6 2 3 5 5 5 6 7 7 7 7 7 12 16 15 12 15 15
5 6 6 6 3 1 1 2 4 3 3 9 8 8 6 5 5 3 3 0 2 4 6 4 4 5 4 4 5 5 4 4 4 3 2 2 2 3 1 1 3 3 2 3 3 4 5 5 6 6 5 4 4 4 4 4 6 7 5 6 6 5 6 5 6 7 7 4 2 1 5 6 5 6 6 7 7 7 7 10 13 12 15 16 16
4 5 5 4 2 2 1 1 4 4 3 9 9 8 8 7 6 1 0 1 2 5 5 4 4 3 4 6 6 5 4 3 5 6 4 1 3 3 3 3 3 2 2 4 5 5 3 1 1 1 2 4 6 7 7 7 7 5 4 4 4 4 4 4 5 5 4 5 5 3 3 7 5 6 7 6 5 7 8 6 8 10 14 14 15
4 3 3 2 2 1 1 2 6 5 5 10 11 9 8 9 5 2 2 3 5 5 4 4 4 3 4 5 6 5 4 3 3 6 7 4 3 3 2 2 2 2 3 4 7 7 6 5 6 6 8 10 11 12 13 14 10 3 1 4 6 3 3 4 4 4 5 6 3 3 5 7 5 5 8 7 6 6 6 6 5 7 12 13 14
4 3 2 2 3 5 5 6 6 5 3 6 9 9 9 8 5 2 2 2 4 4 4 3 4 3 4 11 7 5 4 2 4 6 8 3 2 2 1 1 0 2 1 4 4 5 6 6 6 7 8 11 12 13 13 13 14 4 3 4 4 3 4 4 5 4 5 5 3 3 6 5 6 4 6 7 6 2 4 5 5 7 8 8 11
3 3 3 1 3 5 6 5 7 7 4 5 8 9 9 9 5 2 2 4 4 3 5 4 3 5 5 6 9 6 4 2 3 5 7 5 2 1 1 0 1 1 2 3 4 5 6 6 6 6 6 8 6 5 8 13 14 2 4 3 3 3 3 4 4 5 5 2 3 4 6 6 8 6 5 7 7 5 2 2 6 6 6 6 5
Wind_Direction
156 189 204 232 179 137 171 196 200 216 194 241 262 258 241 218 225 232 238 247 249 254 199 159 172 170 185 173 147 146 146 137 142 143 154 164 179 184 180 183 183 181 181 185 186 190 190 202 218 235 230 240 263 267 271 276 276 278 282 284 282 280 277 275 279 281 282 284 284 282 282 284 285 283 280 278 278 277 278 281 281 279 279 278 276
176 193 195 201 181 180 174 185 196 235 226 264 284 267 277 260 225 212 203 242 240 233 176 217 190 171 182 163 139 157 140 144 153 151 159 169 179 191 186 190 192 192 190 194 194 197 197 200 208 219 239 244 245 257 268 288 294 294 291 289 290 288 287 290 290 289 290 286 284 283 282 282 282 281 280 279 279 278 279 279 280 281 280 278 276
182 182 191 185 187 154 170 154 164 209 211 234 247 208 222 337 24 336 304 298 7 323 345 336 193 170 186 168 181 164 146 153 144 148 165 176 177 185 192 194 198 200 199 202 200 204 202 207 215 218 230 242 261 273 278 281 283 285 287 289 289 291 293 291 290 290 289 288 287 285 284 284 283 282 280 279 278 278 277 278 279 281 282 282 282
172 178 182 169 169 163 171 196 195 244 164 145 182 22 33 19 353 330 331 15 339 360 343 322 223 188 182 185 181 164 143 138 149 164 169 167 171 186 192 198 200 203 208 209 210 207 210 208 211 217 226 236 243 253 260 269 275 281 285 288 288 290 288 286 285 287 288 288 287 286 285 284 284 283 282 281 280 280 279 279 280 279 279 279 280
176 180 180 173 165 184 196 187 180 149 109 133 118 119 55 33 331 334 358 16 6 342 349 317 308 239 171 177 184 178 167 147 161 166 166 168 174 179 187 195 208 207 210 215 217 218 216 215 214 215 218 220 228 236 248 259 267 272 275 275 278 280 282 283 285 286 288 287 287 286 285 285 284 284 284 284 284 283 282 281 279 278 278 279 279
159 179 171 169 172 167 140 135 134 135 173 143 101 78 63 75 324 328 21 23 347 331 354 350 299 162 232 163 188 155 154 139 155 167 168 165 174 169 181 191 199 211 211 217 220 221 221 222 223 220 219 222 225 232 238 246 253 260 264 269 273 276 279 282 285 284 285 285 286 286 286 287 288 289 289 288 287 286 285 283 282 281 283 284 285
117 108 97 135 137 129 129 157 137 144 101 70 84 28 35 337 348 318 15 18 347 338 346 318 309 290 221 186 186 157 152 159 159 160 170 164 160 173 180 187 193 202 212 212 224 226 225 225 224 224 222 222 227 228 231 237 244 250 257 264 268 271 273 278 281 282 283 284 285 288 289 290 290 290 290 290 288 285 283 281 280 281 282 283 285
94 79 78 103 134 143 153 165 125 91 87 65 59 47 7 309 269 167 42 2 353 334 328 318 316 311 348 138 151 140 149 163 153 151 155 153 169 175 180 191 188 192 206 205 211 220 228 231 232 232 231 230 229 230 234 237 240 247 253 258 263 266 270 274 276 276 279 284 290 290 291 290 291 290 291 291 290 287 285 282 279 280 281 283 285
90 73 77 128 127 134 142 97 72 86 92 87 63 50 33 6 344 40 101 32 340 308 323 307 304 309 263 49 66 68 95 128 136 146 145 144 161 168 180 195 194 193 192 200 205 214 221 227 234 236 238 236 240 248 247 243 242 247 251 255 258 262 267 270 273 274 277 281 284 286 288 290 290 291 291 293 291 290 288 287 287 286 285 286 287
118 115 124 111 125 132 121 100 96 99 67 56 48 23 19 22 328 302 89 36 312 330 303 305 314 300 247 121 99 101 118 134 151 155 137 155 170 174 183 184 188 191 195 194 205 206 213 218 222 231 235 233 232 236 247 253 252 248 249 253 257 260 264 268 269 270 271 273 277 280 283 285 287 287 288 288 289 286 286 287 286 286 285 282 281
105 74 68 68 85 104 97 92 94 88 82 62 57 5 23 4 311 321 357 76 256 283 288 303 306 311 244 127 101 121 125 129 100 120 154 171 182 189 183 198 184 168 196 192 203 199 208 210 217 225 236 240 238 235 236 249 255 255 253 255 257 260 265 269 270 270 271 270 271 274 278 281 283 285 287 287 284 282 282 284 285 281 280 281 283
99 102 85 79 84 98 102 84 100 110 110 108 91 300 359 325 295 316 357 331 290 242 275 289 297 286 161 107 130 138 143 153 141 175 177 174 187 155 179 202 187 200 177 187 197 201 202 201 206 217 220 231 231 232 236 239 248 257 260 261 264 265 268 271 273 273 274 275 273 273 273 277 280 282 283 283 283 283 282 280 279 276 274 276 275
114 115 120 87 79 95 95 93 83 116 114 131 186 203 206 233 252 95 22 10 324 328 266 236 233 97 23 91 118 62 204 160 220 184 168 197 197 175 192 163 201 197 221 185 191 191 206 201 207 212 222 229 234 230 233 236 242 249 255 261 261 263 263 265 268 272 275 277 277 275 274 275 278 279 282 284 285 284 282 278 273 274 272 268 271
119 118 111 111 118 127 130 141 157 139 151 174 198 245 229 224 187 350 176 118 277 295 302 44 34 122 133 51 3 335 344 357 302 270 221 207 193 173 184 166 168 195 204 190 184 185 201 206 203 206 217 221 223 233 238 241 244 245 247 249 251 253 254 256 258 264 268 274 278 278 276 276 278 279 282 283 286 286 283 278 274 271 268 266 264
136 134 133 111 95 113 152 178 163 168 110 119 134 225 237 231 190 89 337 287 240 283 316 36 120 87 93 74 359 17 321 360 323 265 227 227 206 170 190 179 190 194 197 181 220 193 206 203 209 199 211 211 220 225 228 231 234 238 244 247 249 251 253 253 253 257 262 270 277 280 283 283 284 285 285 285 285 286 284 281 278 274 271 268 263
166 158 165 127 131 142 131 170 230 128 131 123 267 259 20 322 181 124 147 26 356 324 317 343 139 113 38 132 190 138 21 312 283 276 181 238 232 219 188 192 193 192 182 201 214 215 219 198 214 198 184 198 212 219 224 227 236 240 246 246 246 247 251 252 253 256 263 272 282 287 290 290 288 286 284 283 283 284 284 283 280 276 273 271 268
180 164 145 151 161 147 153 214 137 135 120 159 250 314 322 351 69 143 180 97 25 339 320 343 6 75 136 99 22 32 213 247 338 301 300 340 233 205 194 197 181 187 193 225 212 217 209 200 211 206 194 200 196 213 226 234 238 243 241 243 244 244 247 248 251 261 268 273 279 283 285 284 285 284 284 284 285 285 287 285 281 278 275 272 269
165 158 147 156 168 160 182 120 136 161 163 177 179 263 56 284 185 107 70 85 128 44 337 343 22 14 94 146 164 173 193 259 100 283 306 214 329 42 83 184 185 189 201 204 219 207 204 202 204 211 209 225 214 209 217 229 233 230 231 237 240 239 243 247 252 260 266 272 279 281 282 282 284 287 289 290 289 291 290 288 283 281 279 276 272
159 143 150 150 161 160 162 111 153 190 240 156 212 201 191 215 158 104 158 174 103 97 51 318 343 9 20 359 298 238 158 88 295 356 1 320 355 355 358 37 332 235 211 193 217 193 208 211 207 207 215 221 223 216 220 229 227 227 229 233 233 234 239 245 251 258 265 271 272 275 278 282 287 291 293 293 292 292 290 288 285 282 281 278 276
151 149 152 156 155 159 139 159 181 183 218 177 180 199 85 157 151 142 141 154 136 113 82 7 89 304 352 352 345 352 62 15 109 161 175 317 322 327 311 40 321 54 336 268 224 203 203 233 216 221 230 230 230 233 231 232 241 227 217 227 220 222 234 243 248 257 261 265 269 272 273 278 283 285 286 286 287 288 287 285 285 282 281 279 278
154 153 158 164 167 173 156 169 189 231 94 181 174 184 177 149 86 81 107 300 63 146 92 283 127 77 26 354 3 10 11 356 27 28 102 86 303 4 315 329 3 345 336 332 335 327 258 216 204 206 214 219 222 232 222 208 205 206 227 221 212 218 234 243 246 254 256 256 264 268 268 270 272 274 277 280 281 283 284 284 284 283 282 282 282
160 169 164 169 178 181 164 176 208 196 167 207 124 255 176 135 163 170 202 56 6 352 211 282 140 130 119 126 71 355 18 8 24 358 12 78 155 318 333 328 346 296 317 312 325 319 313 292 280 237 197 203 205 222 210 198 217 230 242 237 221 226 239 245 243 250 254 253 254 261 266 262 261 263 268 271 274 278 285 287 288 286 283 284 283
172 188 172 174 187 190 180 190 194 176 167 171 170 216 190 146 165 169 206 157 172 316 344 114 138 96 76 109 137 133 160 127 197 290 65 48 30 10 283 254 272 322 292 308 320 321 314 317 311 320 248 196 199 198 229 218 236 247 239 229 226 233 244 249 246 249 253 254 258 259 258 261 261 264 268 272 278 282 282 288 288 287 284 283 282
182 179 185 182 183 192 196 143 157 170 166 164 147 107 101 111 102 196 192 186 189 206 128 49 80 87 123 151 148 138 143 150 169 162 127 160 171 238 288 319 332 237 282 306 311 315 309 339 328 323 266 190 167 197 206 225 246 268 274 244 243 249 258 259 251 247 249 253 255 259 264 269 271 271 273 275 280 282 284 284 285 286 285 281 283
179 180 190 194 175 188 177 160 165 184 146 162 138 134 152 135 163 130 149 178 202 176 174 190 159 135 180 220 174 138 173 181 139 139 126 183 80 41 285 184 232 299 284 313 295 310 309 332 351 354 308 82 247 217 226 251 273 276 280 273 252 251 260 267 254 247 247 250 255 259 263 267 270 272 275 280 282 284 282 284 284 279 280 282 281
179 186 194 193 169 183 171 170 169 166 163 171 163 158 171 164 168 165 205 212 181 199 224 247 165 188 160 187 231 155 192 183 136 122 155 147 139 208 252 316 209 258 281 354 304 12 324 340 316 303 299 131 221 241 263 265 274 276 276 266 266 267 284 279 261 249 246 249 254 258 262 265 267 266 271 276 279 283 284 279 282 282 282 283 286
180 193 194 171 173 169 160 167 175 162 163 176 162 159 179 163 172 210 202 223 264 256 241 200 152 151 152 193 211 162 184 226 177 190 174 212 183 167 149 356 338 350 332 303 305 261 232 293 279 299 253 256 270 285 287 279 271 284 283 271 260 265 267 268 254 243 245 250 254 258 261 262 261 258 262 268 274 276 277 281 284 286 283 281 284
189 184 188 159 172 171 171 170 175 175 180 185 185 182 177 165 178 188 243 206 178 303 296 300 220 198 186 208 168 222 206 201 191 203 204 165 146 151 117 128 146 308 332 334 341 299 270 298 308 280 299 298 295 288 292 293 298 291 290 264 259 266 270 256 239 241 250 257 262 264 267 269 266 263 262 263 267 271 275 270 276 283 287 286 286
187 179 182 173 176 177 173 169 178 183 184 191 168 174 173 161 177 189 232 287 125 258 286 300 271 190 153 239 172 155 208 201 192 220 213 158 180 164 143 161 160 169 279 338 288 292 309 359 344 299 326 324 301 305 315 295 287 281 269 257 259 269 266 240 244 249 257 268 275 276 277 276 272 265 260 261 262 265 269 270 274 276 283 287 286
194 181 178 179 178 182 176 169 179 180 184 192 170 181 185 196 184 187 197 168 158 307 292 283 281 203 184 226 241 186 186 196 208 206 158 182 142 142 122 151 148 159 188 250 286 255 283 317 334 312 320 319 303 295 285 278 273 272 274 284 288 281 257 254 258 262 265 274 283 287 285 281 276 266 259 259 261 264 266 270 268 269 273 283 289
189 182 169 182 171 172 184 173 180 182 180 188 180 187 183 204 203 193 184 163 169 218 261 262 249 206 219 228 259 266 185 197 205 179 151 157 125 112 111 140 146 137 150 105 332 287 234 299 290 296 309 314 313 297 298 304 300 304 303 296 285 276 282 283 280 279 279 280 282 286 290 287 276 265 261 262 264 267 268 269 268 265 268 280 288
182 173 175 172 175 176 181 176 178 182 184 187 184 179 181 197 198 198 197 170 188 219 259 265 267 213 199 221 247 244 252 146 140 155 155 170 155 162 183 172 160 175 168 155 222 265 260 248 275 283 306 318 321 327 327 325 316 317 321 312 300 303 304 295 296 296 296 292 293 302 311 300 283 275 272 269 268 268 270 270 269 270 273 278 284
172 173 185 187 178 178 181 187 181 182 189 192 189 172 179 193 202 199 186 183 194 223 231 267 270 213 198 211 242 236 202 181 204 178 174 168 145 186 222 181 212 199 175 187 209 255 296 265 244 268 299 323 312 308 322 317 321 321 315 301 294 287 289 286 292 299 305 310 309 313 310 301 288 283 279 276 272 271 271 272 271 271 273 277 281
172 182 185 190 182 180 182 190 196 187 190 192 190 181 183 186 190 192 184 198 204 228 236 251 262 248 221 241 264 260 219 218 236 208 196 183 183 188 209 203 232 230 203 175 217 227 268 311 315 301 295 273 287 292 293 298 299 301 301 296 292 292 296 301 307 305 301 299 300 305 308 306 299 293 288 280 275 274 276 276 276 277 278 279 278
186 183 189 189 181 183 195 188 198 184 185 191 187 183 189 186 189 196 200 198 203 216 226 241 250 246 231 212 233 234 239 239 244 230 215 204 215 216 209 201 219 232 211 202 191 233 249 266 259 286 268 293 265 282 294 289 282 283 290 300 314 319 317 315 318 313 305 305 313 316 316 317 315 300 290 287 287 288 285 283 282 283 281 277 274
186 188 184 193 178 187 196 201 181 166 177 186 193 182 185 188 193 208 205 193 197 210 217 230 236 230 227 233 245 239 238 236 231 228 197 186 231 214 221 216 222 230 235 226 227 226 242 258 291 245 278 292 289 284 282 293 300 302 305 309 323 325 323 320 315 314 317 325 330 332 331 322 311 304 302 307 306 294 289 288 286 281 279 276 272
192 176 182 191 184 182 193 186 177 168 175 187 194 200 191 189 191 202 200 187 197 208 216 226 224 217 224 224 229 233 239 248 270 253 240 234 244 237 244 214 195 211 189 190 206 215 215 248 287 291 284 283 266 278 283 309 319 327 328 325 308 309 310 305 315 321 321 323 322 319 316 313 315 324 323 320 324 324 315 297 284 282 282 280 276
186 191 181 192 190 185 187 181 182 178 179 182 186 202 202 188 195 199 198 201 206 210 216 216 223 219 224 222 226 226 230 226 234 232 237 244 222 226 231 233 239 201 213 253 278 306 325 264 241 291 320 277 314 292 304 355 345 323 323 310 320 321 327 329 327 324 323 319 321 321 314 311 322 333 331 325 315 312 309 297 287 287 288 286 283
185 185 189 184 181 181 183 183 184 185 178 182 186 194 208 210 193 196 200 207 208 217 214 215 218 223 224 227 228 227 229 227 259 267 249 233 232 261 248 238 263 57 11 308 284 226 229 285 294 263 277 283 264 294 294 327 317 286 315 332 329 320 324 327 325 321 315 311 301 298 301 310 323 319 309 309 307 303 299 295 293 292 292 292 289
191 173 183 186 178 176 189 190 192 184 188 188 186 188 199 208 204 189 203 203 212 205 210 218 228 236 224 218 227 221 214 206 219 238 256 223 220 211 200 167 162 142 200 229 271 285 300 296 261 282 282 282 315 295 311 356 354 340 339 336 325 327 329 328 315 311 309 307 313 320 320 319 314 309 306 303 302 298 296 296 296 297 297 301 303
129 129 185 176 177 193 185 200 194 185 183 193 187 185 192 194 195 209 207 204 200 191 229 235 245 257 261 256 253 241 183 207 235 186 226 224 183 192 223 183 174 176 187 192 218 266 279 275 287 293 294 310 295 310 328 322 308 288 289 346 310 304 309 318 313 291 285 308 309 317 314 317 312 310 310 308 306 305 305 305 309 311 318 321 317
143 121 35 46 57 57 34 2 345 314 267 201 191 201 196 187 192 201 196 174 196 180 187 209 245 251 257 258 263 279 285 228 195 225 240 230 214 206 206 190 175 173 190 212 251 242 240 260 261 265 291 286 281 293 289 269 269 309 334 326 314 309 317 309 282 272 304 306 322 321 314 312 312 304 303 301 300 310 312 315 314 326 326 323 318
77 97 106 82 77 78 91 111 177 305 333 330 352 33 32 279 210 194 194 171 171 172 188 204 226 236 246 257 262 252 246 265 313 264 251 237 234 237 207 175 166 169 187 221 240 235 233 247 254 266 265 275 279 279 276 275 283 295 284 293 290 311 326 332 327 316 283 332 320 316 310 309 311 304 305 303 307 313 321 323 332 338 334 323 316
78 105 119 124 114 121 117 117 168 233 216 354 351 9 4 1 291 233 191 185 183 189 199 206 216 224 235 240 242 249 125 113 93 56 12 270 247 237 193 151 172 202 194 188 215 238 221 245 271 265 261 264 272 282 285 295 294 296 284 289 287 301 311 312 300 301 296 322 317 314 303 302 313 307 311 312 323 333 338 337 337 336 338 333 324
110 91 89 109 117 124 137 154 182 189 141 8 353 350 5 350 295 279 277 200 197 197 193 206 222 242 276 273 320 34 42 36 38 13 13 359 282 176 155 165 178 197 214 223 214 212 204 220 235 259 245 251 271 274 266 278 290 302 306 295 287 290 286 292 285 292 297 306 320 311 303 303 319 326 326 319 332 338 334 331 328 330 339 340 339
87 85 82 89 92 115 151 187 187 103 79 6 348 356 16 19 355 247 236 266 221 206 200 100 88 91 93 100 100 79 46 41 28 11 0 7 5 147 178 186 209 227 211 220 227 231 223 221 220 234 254 217 257 264 274 288 312 296 293 287 291 291 290 281 284 284 287 297 296 285 291 309 330 331 323 321 333 332 329 321 320 328 339 353 350
68 64 71 86 89 93 38 135 135 91 52 357 349 349 0 10 336 263 213 194 73 71 83 98 96 90 76 81 88 87 73 59 39 358 1 353 356 3 358 248 230 245 234 229 228 221 216 217 217 231 255 263 257 265 274 280 265 259 266 284 288 282 277 283 286 275 282 276 216 220 297 316 325 327 315 320 327 323 321 316 317 333 351 346 339
91 85 77 80 95 97 91 95 121 93 45 13 352 350 343 359 332 320 82 83 57 91 89 89 88 83 84 99 106 101 88 72 19 8 7 346 42 46 30 4 350 317 267 241 263 292 18 64 253 291 287 288 287 277 277 276 279 279 307 290 292 282 295 304 294 300 299 308 307 319 314 314 318 322 316 312 316 317 315 311 316 336 338 331 329
90 102 136 120 83 43 71 30 82 61 32 7 358 351 348 345 341 11 35 80 101 102 98 94 92 92 93 106 117 118 108 83 14 16 6 45 72 68 43 30 339 336 332 5 48 68 32 4 329 305 290 284 286 284 281 273 258 267 299 324 294 297 317 312 302 317 317 319 308 1 332 310 320 322 314 315 316 302 299 304 313 326 324 320 320
102 98 156 145 88 42 30 53 88 86 65 24 18 8 360 354 339 345 2 87 103 109 117 111 98 86 115 115 108 106 109 81 19 20 9 19 78 67 74 26 349 305 29 6 351 347 349 341 332 317 299 289 285 285 282 281 280 165 200 233 283 328 313 308 314 308 306 305 287 337 335 298 312 316 313 310 310 251 279 290 311 316 316 313 316
109 108 108 80 75 82 106 112 96 97 83 47 32 27 26 13 6 335 17 69 103 134 142 133 126 95 72 86 98 101 100 95 51 37 24 23 40 1 21 272 229 257 100 1 357 342 348 345 331 329 316 305 298 294 303 307 321 82 190 236 296 340 340 330 327 325 327 297 295 348 334 322 331 323 335 324 321 304 232 303 316 311 313 311 316